STARLINK-32707, 62478

Orbit data source: Space-Track

STARLINK-32707, 62478 is a payload satellite owned by SpaceX/Seattle (US) in LEO that was launched on Tue, 31 Dec 2024 UTC via an FALCON 9 launch vehicle from the Air Force Eastern Test Range (AFETR). Payloads include a variety of satellites, spacecraft, and rockets equipped with specific instruments for various scientific and technological missions. These include communications satellites like Starlink; space stations such as the ISS; scientific satellites like the Hubble; Earth observation satellites from companies like Planet Labs, Umbra, and HawkEye 360; GPS; miniature CubeSats for education and research; and military/defense satellites.

Loading next visibility...
STARLINK-32707 details
Identifier
62478, 2024-254S
Orbit
LEO
Last TLE update21 hours ago
Origin
Flag of USSpaceX/Seattle (US)
ManufacturerSpaceX/Seattle
MissionOperational spacecraft
Bus & MotorSTARLINK V2M, Unknown motor
Mass730 kg wet, ~700 kg dry
Launch date (UTC)
2024-12-31 (4 weeks ago)
Launch vehicle
FALCON 9
Launch site
Air Force Eastern Test Range (AFETR)
Object type
Payload
Rocket body
Debris
Shape & HBRUnknown
Radar Cross SectionLarge (>1 m²)

Expand to show TLE details & history

TLE from 21 hours ago
0 STARLINK-32707
1 62478U 24254S   25024.91667824 -.01550300  00000-0 -25119-1 0  9995
2 62478  42.9992 170.0642 0001509 289.4832 186.7530 15.54777550  5129
Epoch: 2025-01-24T22:00Z
Definitive object data (Epoch: 2025-01-24T22:00:00.999Z)
Latitude37.86003°
Longitude-160.4077°
Altitude405.82 km
Speed7.672 km/s
True Right ascension19h 36m 16s
True Declination37° 41' 06"
Sunlit
Object was in daylight at TLE epoch
Visualization TLE readout
Latitude-9.38619°
Longitude60.28196°
Altitude411.745 km
Speed7.666 km/s
Apparent Right ascension09h 30m 32s
Apparent Declination-24° 42' 06"
Sunlit
Object is in full shadow
Visualization observer readout
Local Sidereal Time20:23:46
Azimuth312.353° NW
Elevation-69.324°
Doppler factor1
Orbital elements
Apogee altitude405.791 km
Perigee altitude403.744 km
Semi-major axis6,782.905 km
Eccentricity0.0001509
Inclination42.9992°
RAAN170.0642°
Arg. of periapsis289.4832°
True anomaly186.75097°
Mean anomaly186.753°
Eccentric anomaly186.75198°
Mean motion3.88526 °/min
BSTAR-0.025119
Orbital period92.66 mins
Loading maneuver chart data...
Loading historical data...
Loading historical data...
Loading historical data...
Loading historical data...
Loading historical data...
Loading historical data...
Loading historical data...

STARLINK-32707 Visibility forecast

Observer location: undefined°, undefined

Span
Click to sort rows by Start time (UTC) header in descending order
Start Az.
Max El. time (UTC)
Max El. Az.
Max El.
End time (UTC)
End Az.
5 mins2025-01-26 12:18:54.137Z209.42° SW2025-01-26 12:20:54.137Z168.55° S26.141°2025-01-26 12:23:54.137Z90.312° ESE
5 mins2025-01-26 13:56:54.137Z267.476° W2025-01-26 13:58:54.137Z9.931° NNE42.467°2025-01-26 14:01:54.137Z69.844° E
4 mins2025-01-26 15:34:54.137Z301.236° NW2025-01-26 15:36:54.137Z32.331° NE35.215°2025-01-26 15:38:54.137Z75.813° E
5 mins2025-01-26 17:11:54.137Z284.333° WNW2025-01-26 17:13:54.137Z237.831° WSW43.59°2025-01-26 17:16:54.137Z116.428° SE
|